• In Hungary
  • List of Countries
  • For 7 days
  • Water Temperature
  • Satellite Maps
  • Weather Map
  • News
  • Weather Widgets
  • user-avatar
    Login

    Hourly Weather Salzburg

    Today, 26 September, Tuesday

    Time Temperature Precipitation Wind Pressure Humidity
    00:00 +3°C° 0 mm 1 mps 628 mmHg 94%
    01:00 +2°C° 0 mm 1 mps 628 mmHg 94%
    02:00 +2°C° 0 mm 1 mps 628 mmHg 93%
    03:00 +2°C° 0 mm 1 mps 627 mmHg 93%
    04:00 +2°C° 0 mm 1 mps 627 mmHg 93%
    05:00 +2°C° 0 mm 1 mps 628 mmHg 92%
    06:00 +2°C° 0 mm 1 mps 628 mmHg 91%
    07:00 +2°C° 0 mm 1 mps 628 mmHg 89%
    08:00 +5°C° 0 mm 1 mps 629 mmHg 80%
    09:00 +8°C° 0 mm 1 mps 630 mmHg 70%
    10:00 +11°C° 0 mm 1 mps 631 mmHg 60%
    11:00 +11°C° 0 mm 1 mps 631 mmHg 60%
    12:00 +12°C° 0 mm 1 mps 631 mmHg 60%
    13:00 +12°C° 0 mm 2 mps 631 mmHg 60%
    14:00 +12°C° 0.2 mm 2 mps 631 mmHg 64%
    15:00 +10°C° 0.2 mm 2 mps 631 mmHg 69%
    16:00 +10°C° 0.2 mm 2 mps 631 mmHg 73%
    17:00 +9°C° 0.1 mm 1 mps 630 mmHg 80%
    18:00 +7°C° 0.1 mm 1 mps 630 mmHg 87%
    19:00 +5°C° 0.1 mm 1 mps 629 mmHg 93%
    20:00 +5°C° 0 mm 1 mps 629 mmHg 93%
    21:00 +4°C° 0 mm 1 mps 629 mmHg 93%
    22:00 +4°C° 0 mm 1 mps 629 mmHg 93%
    23:00 +4°C° 0 mm 1 mps 629 mmHg 93%

    Tomorrow, 27 September, Wednesday

    Time Temperature Precipitation Wind Pressure Humidity
    00:00 +3°C° 0 mm 1 mps 629 mmHg 92%
    01:00 +3°C° 0 mm 1 mps 629 mmHg 92%
    02:00 +3°C° 0 mm 1 mps 629 mmHg 92%
    03:00 +3°C° 0 mm 1 mps 629 mmHg 91%
    04:00 +3°C° 0 mm 1 mps 629 mmHg 91%
    05:00 +3°C° 0 mm 1 mps 629 mmHg 90%
    06:00 +3°C° 0 mm 1 mps 630 mmHg 89%
    07:00 +4°C° 0 mm 1 mps 630 mmHg 88%
    08:00 +6°C° 0 mm 1 mps 631 mmHg 80%
    09:00 +9°C° 0 mm 1 mps 632 mmHg 71%
    10:00 +12°C° 0 mm 1 mps 633 mmHg 63%
    11:00 +12°C° 0 mm 1 mps 633 mmHg 60%
    12:00 +13°C° 0 mm 1 mps 633 mmHg 57%
    13:00 +14°C° 0 mm 2 mps 633 mmHg 55%
    14:00 +14°C° 0.1 mm 2 mps 633 mmHg 60%
    15:00 +13°C° 0.1 mm 1 mps 633 mmHg 64%
    16:00 +13°C° 0.1 mm 1 mps 632 mmHg 69%
    17:00 +11°C° 0 mm 1 mps 632 mmHg 77%
    18:00 +8°C° 0 mm 1 mps 631 mmHg 85%
    19:00 +6°C° 0 mm 1 mps 631 mmHg 92%
    20:00 +6°C° 0 mm 1 mps 631 mmHg 92%
    21:00 +6°C° 0 mm 1 mps 631 mmHg 93%
    22:00 +5°C° 0 mm 1 mps 631 mmHg 93%
    23:00 +5°C° 0 mm 1 mps 631 mmHg 92%

    Day after tomorrow, 28 September, Thursday

    Time Temperature Precipitation Wind Pressure Humidity
    00:00 +5°C° 0 mm 1 mps 631 mmHg 92%
    01:00 +4°C° 0 mm 1 mps 631 mmHg 92%
    02:00 +4°C° 0 mm 1 mps 631 mmHg 92%
    03:00 +4°C° 0 mm 1 mps 631 mmHg 91%
    04:00 +3°C° 0 mm 1 mps 631 mmHg 91%
    05:00 +4°C° 0 mm 1 mps 631 mmHg 89%
    06:00 +4°C° 0 mm 1 mps 631 mmHg 87%
    07:00 +5°C° 0 mm 1 mps 631 mmHg 85%
    08:00 +7°C° 0 mm 1 mps 632 mmHg 75%
    09:00 +10°C° 0 mm 1 mps 633 mmHg 66%
    10:00 +12°C° 0 mm 0 mps 635 mmHg 56%
    11:00 +14°C° 0 mm 1 mps 634 mmHg 55%
    12:00 +14°C° 0 mm 1 mps 634 mmHg 55%
    13:00 +15°C° 0 mm 1 mps 634 mmHg 54%
    14:00 +14°C° 0.3 mm 1 mps 634 mmHg 60%
    15:00 +13°C° 0.3 mm 1 mps 634 mmHg 67%
    16:00 +12°C° 0.3 mm 1 mps 633 mmHg 74%
    17:00 +11°C° 0.2 mm 1 mps 633 mmHg 80%
    18:00 +9°C° 0.2 mm 1 mps 632 mmHg 87%
    19:00 +7°C° 0.2 mm 1 mps 632 mmHg 93%
    20:00 +6°C° 0 mm 1 mps 632 mmHg 93%
    21:00 +6°C° 0 mm 1 mps 631 mmHg 93%
    22:00 +5°C° 0 mm 1 mps 631 mmHg 93%
    23:00 +5°C° 0 mm 1 mps 631 mmHg 93%

    29 September, Friday

    Time Temperature Precipitation Wind Pressure Humidity
    00:00 +4°C° 0 mm 1 mps 631 mmHg 93%
    01:00 +4°C° 0 mm 1 mps 631 mmHg 92%
    02:00 +4°C° 0 mm 1 mps 631 mmHg 92%
    03:00 +4°C° 0 mm 1 mps 631 mmHg 91%
    04:00 +4°C° 0 mm 1 mps 631 mmHg 90%
    05:00 +4°C° 0 mm 1 mps 631 mmHg 88%
    06:00 +4°C° 0 mm 1 mps 631 mmHg 86%
    07:00 +5°C° 0 mm 1 mps 631 mmHg 84%
    08:00 +7°C° 0 mm 1 mps 632 mmHg 77%
    09:00 +10°C° 0 mm 1 mps 633 mmHg 69%
    10:00 +12°C° 0 mm 1 mps 634 mmHg 61%
    11:00 +13°C° 0 mm 1 mps 633 mmHg 59%
    12:00 +13°C° 0 mm 1 mps 633 mmHg 57%
    13:00 +14°C° 0 mm 1 mps 633 mmHg 55%
    14:00 +13°C° 0.1 mm 1 mps 633 mmHg 60%
    15:00 +13°C° 0.1 mm 1 mps 632 mmHg 64%
    16:00 +12°C° 0.1 mm 1 mps 632 mmHg 69%
    17:00 +10°C° 0 mm 1 mps 631 mmHg 77%
    18:00 +8°C° 0 mm 1 mps 631 mmHg 85%
    19:00 +6°C° 0 mm 1 mps 630 mmHg 94%
    20:00 +5°C° 0 mm 1 mps 630 mmHg 94%
    21:00 +5°C° 0 mm 1 mps 630 mmHg 94%
    22:00 +4°C° 0 mm 1 mps 630 mmHg 95%
    23:00 +4°C° 0 mm 1 mps 629 mmHg 94%

    30 September, Saturday

    Time Temperature Precipitation Wind Pressure Humidity
    00:00 +4°C° 0 mm 1 mps 629 mmHg 94%
    01:00 +3°C° 0 mm 1 mps 629 mmHg 94%
    02:00 +3°C° 0 mm 1 mps 629 mmHg 93%
    03:00 +3°C° 0 mm 1 mps 628 mmHg 93%
    04:00 +3°C° 0 mm 1 mps 628 mmHg 93%
    05:00 +3°C° 0 mm 1 mps 628 mmHg 91%
    06:00 +3°C° 0 mm 1 mps 628 mmHg 89%
    07:00 +4°C° 0 mm 1 mps 628 mmHg 88%
    08:00 +6°C° 0 mm 1 mps 629 mmHg 79%
    09:00 +9°C° 0 mm 1 mps 630 mmHg 69%
    10:00 +11°C° 0 mm 1 mps 630 mmHg 60%
    11:00 +12°C° 0 mm 1 mps 630 mmHg 58%
    12:00 +13°C° 0 mm 1 mps 630 mmHg 57%
    13:00 +13°C° 0 mm 1 mps 630 mmHg 55%
    14:00 +12°C° 0.1 mm 1 mps 630 mmHg 60%
    15:00 +12°C° 0.1 mm 1 mps 629 mmHg 65%
    16:00 +11°C° 0.1 mm 1 mps 629 mmHg 70%
    17:00 +9°C° 0.1 mm 1 mps 628 mmHg 77%
    18:00 +7°C° 0.1 mm 1 mps 627 mmHg 84%
    19:00 +5°C° 0.1 mm 1 mps 627 mmHg 92%
    20:00 +4°C° 0 mm 1 mps 627 mmHg 92%
    21:00 +4°C° 0 mm 1 mps 627 mmHg 92%
    22:00 +4°C° 0 mm 1 mps 627 mmHg 92%
    23:00 +3°C° 0 mm 1 mps 627 mmHg 92%

    1 October, Sunday

    Time Temperature Precipitation Wind Pressure Humidity
    00:00 +3°C° 0 mm 1 mps 627 mmHg 92%
    01:00 +3°C° 0 mm 1 mps 626 mmHg 92%
    02:00 +3°C° 0 mm 1 mps 626 mmHg 92%
    03:00 +3°C° 0 mm 1 mps 626 mmHg 92%
    04:00 +3°C° 0 mm 1 mps 626 mmHg 92%
    05:00 +3°C° 0 mm 1 mps 626 mmHg 91%
    06:00 +3°C° 0 mm 1 mps 627 mmHg 90%
    07:00 +3°C° 0 mm 1 mps 627 mmHg 89%
    08:00 +6°C° 0 mm 1 mps 628 mmHg 78%
    09:00 +9°C° 0 mm 1 mps 629 mmHg 68%
    10:00 +11°C° 0 mm 1 mps 629 mmHg 57%
    11:00 +12°C° 0 mm 1 mps 630 mmHg 56%
    12:00 +13°C° 0 mm 1 mps 630 mmHg 54%
    13:00 +13°C° 0 mm 1 mps 630 mmHg 53%
    14:00 +12°C° 0 mm 1 mps 629 mmHg 58%
    15:00 +12°C° 0 mm 1 mps 629 mmHg 64%
    16:00 +11°C° 0 mm 1 mps 629 mmHg 70%
    17:00 +9°C° 0 mm 1 mps 628 mmHg 78%
    18:00 +6°C° 0 mm 0 mps 628 mmHg 86%
    19:00 +4°C° 0 mm 0 mps 628 mmHg 94%
    20:00 +4°C° 0 mm 0 mps 628 mmHg 95%
    21:00 +4°C° 0 mm 0 mps 628 mmHg 95%
    22:00 +4°C° 0 mm 0 mps 628 mmHg 95%
    23:00 +3°C° 0 mm 0 mps 628 mmHg 96%
    Show more